Flag for U.S.A. Weather past 2 weeks in Philadelphia, Pennsylvania, U.S.A.

Now
66 °F

Clear.


Feels Like: 66 °F
Forecast: 49 / 69 °F
Wind: 12 mph from Northwest

Location: Philadelphia International Airport

Current Time: May 23, 2015 at 1:06:29 AM

Latest Report: May 22, 2015 at 11:54 PM


Visibility: 10 mi

Pressure: 30.18 "Hg

Humidity: 18%

Dew point: 21 °F

Location of PhiladelphiaLocation

Historic Weather in Philadelphia — Graph

°F

Philadelphia temperature yesterday

Maximum temperature yesterday: 77 °F (at 5:54 PM)
Minimum temperature yesterday: 53 °F (at 1:54 AM)
Average temperature yesterday: 65 °F

Past Weeks' High & Low Weather Summary

 TemperatureHumidityPressure
High86 °F (May 12, 1:54 PM)93% (May 8, 5:54 AM)30.43 "Hg (May 8, 5:54 AM)
Low50 °F (May 14, 4:54 AM)18% (May 22, 11:54 PM)29.80 "Hg (May 12, 6:54 PM)
Average69 °F62%30.10 "Hg
* Reported May 7 11:54 PM — May 22 11:54 PM, Philadelphia, Weather by CustomWeather, © 2015

Note: Actual official high and low records may vary slightly from our data, if they occured in-between our weather recording intervals... More about our weather records

Advertising

Philadelphia weather history for previous 24 hours

 ConditionsComfort  
Time TempWeatherWind HumidityBarometerVisibility
11:54 PM
Fri, May 22
66 °FClear.12 mph18%30.18 "Hg10 mi
10:54 PM68 °FClear.16 mph20%30.15 "Hg10 mi
9:54 PM69 °FClear.10 mph29%30.11 "Hg10 mi
8:54 PM71 °FPassing clouds.12 mph32%30.08 "Hg10 mi
7:54 PM73 °FPassing clouds.13 mph29%30.04 "Hg10 mi
6:54 PM74 °FScattered clouds.17 mph26%30.01 "Hg10 mi
5:54 PM77 °FScattered clouds.25 mph23%30.00 "Hg10 mi
4:54 PM76 °FPartly sunny.22 mph26%29.99 "Hg10 mi
3:54 PM75 °FPartly sunny.21 mph27%29.99 "Hg10 mi
2:54 PM74 °FPartly sunny.18 mph29%30.00 "Hg10 mi
1:54 PM74 °FScattered clouds.17 mph31%29.99 "Hg10 mi
12:54 PM73 °FPassing clouds.22 mph29%30.00 "Hg10 mi
11:54 AM72 °FPassing clouds.18 mph29%30.01 "Hg10 mi
10:54 AM68 °FSunny.14 mph38%30.00 "Hg10 mi
9:54 AM64 °FSunny.14 mph43%30.00 "Hg10 mi
8:54 AM61 °FSunny.12 mph50%29.99 "Hg10 mi
7:54 AM56 °FSunny.9 mph62%29.98 "Hg10 mi
6:54 AM53 °FSunny.10 mph72%29.97 "Hg10 mi
5:54 AM53 °FClear.9 mph72%29.95 "Hg10 mi
4:54 AM53 °FPassing clouds.8 mph74%29.93 "Hg10 mi
3:54 AM53 °FPassing clouds.8 mph77%29.90 "Hg10 mi
2:54 AM53 °FPartly cloudy.6 mph80%29.90 "Hg10 mi
1:54 AM53 °FMostly cloudy.7 mph77%29.91 "Hg10 mi
Weather by CustomWeather, © 2015

See weather overviewHow to use our weather pages